{"data":{"norad_id":67904,"intl_designator":"2026-036A","name":"STARLINK-36814","alt_names":[],"object_type":"PAYLOAD","status":"ACTIVE","operator":null,"country":"US","launch_date":"2026-02-22","launch_site_code":"AFETR","launch_vehicle":null,"mission":null,"orbit_class":"UNKNOWN","rcs_meters":null,"size_class":null,"mass_kg":null,"dimensions":null,"purposes":["comms"],"wikipedia_slug":null,"has_3d_model":false,"image_url":null,"decayed_at":null,"tle_current":{"epoch":"2026-09-19T22:16:29.036640Z","epoch_age_seconds":112518,"freshness":"FRESH","line1":"1 67904U 26036A   26262.92811385  .00010405  00000+0  38694-3 0  9990","line2":"2 67904  42.9987 228.7440 0000214 232.8634 127.2198 15.27591777 33422","mean_motion":15.27591777,"eccentricity":2.14e-5,"inclination_deg":42.9987,"raan_deg":228.744,"arg_perigee_deg":232.8634,"mean_anomaly_deg":127.2198,"bstar":0.00038694,"rev_number":3342,"period_min":94.266021962227,"perigee_km":482.86700306366,"apogee_km":483.16066031926,"semimajor_km":6861.1508316915,"source":"CELESTRAK","updated_at":"2026-09-20T09:00:43.700794Z"}}}